Vorticity
nan nan nan nan nan nan nan nan nan nan nan nan nan nan nan nan nan nan nan nan nan nan nan nan nan nan nan nan nan nan nan nan nan
nan 4 4 4 5 5 5 5 5 5 5 3 2 11 9 3 6 6 5 7 5 6 7 7 6 4 3 4 5 4 3 4 nan
nan 4 4 4 4 5 5 5 4 4 3 3 3 8 9 6 6 5 5 6 5 5 6 6 6 6 6 5 5 5 5 6 nan
nan 4 4 4 4 4 4 4 4 3 4 3 3 4 10 7 6 5 5 5 4 5 5 5 6 6 7 7 7 7 7 7 nan
nan 4 6 5 4 4 4 3 3 3 2 2 3 6 6 7 7 5 6 5 4 4 4 5 5 5 6 6 7 7 7 7 nan
nan 7 6 5 5 4 4 4 3 3 3 4 4 7 6 8 8 8 7 4 3 4 4 4 5 5 5 5 6 6 6 6 nan
nan 8 7 5 5 5 5 5 5 4 5 6 7 7 6 9 9 9 8 4 4 4 3 3 4 4 4 4 5 5 5 5 nan
nan 6 6 8 7 5 7 7 7 6 6 6 7 6 7 7 9 10 9 4 4 6 5 3 3 4 4 4 4 4 5 5 nan
nan 7 7 6 8 7 6 7 7 7 6 6 7 7 7 6 8 11 10 5 5 5 6 6 5 3 4 4 4 4 4 4 nan
nan 7 7 7 7 7 7 7 7 8 9 9 8 7 7 6 6 10 12 7 6 5 5 6 6 6 5 5 5 4 4 4 nan
nan 8 7 8 7 7 8 8 8 9 9 8 8 8 7 8 7 7 12 12 8 6 4 6 6 6 7 9 9 7 4 4 nan
nan 7 8 8 9 9 8 7 7 8 8 8 8 9 9 8 8 8 8 12 12 9 7 6 5 5 7 8 11 17 18 8 nan
nan 7 7 8 8 8 8 8 7 7 7 7 8 8 9 9 9 7 8 8 11 12 11 9 10 8 8 10 11 12 21 23 nan
nan 7 7 8 8 8 7 7 8 7 8 8 8 8 8 8 8 8 9 9 9 12 17 11 8 15 15 15 12 10 9 14 nan
nan 7 8 7 7 8 9 9 7 7 8 8 9 9 7 7 8 9 9 11 12 12 12 12 9 9 12 12 10 8 7 7 nan
nan 8 9 10 9 10 9 9 8 9 8 7 8 9 9 9 10 11 12 13 10 10 9 8 7 3 2 4 7 7 7 7 nan
nan 10 9 9 9 8 8 8 8 9 9 7 8 7 8 10 10 12 13 12 8 8 9 9 8 7 2 1 2 7 8 7 nan
nan 10 10 9 9 8 8 9 9 8 7 11 9 9 9 6 6 8 9 9 9 8 9 9 9 9 8 7 3 5 7 8 nan
nan 7 8 9 8 10 11 10 10 10 8 9 11 9 9 7 6 6 7 9 9 9 7 7 7 8 8 5 5 6 6 8 nan
nan nan nan nan nan nan nan nan nan nan nan nan nan nan nan nan nan nan nan nan nan nan nan nan nan nan nan nan nan nan nan nan nan
CAPE
10 11 10 13 8 8 5 2 19 0 23 47 82 14 38 0 0 0 0 0 0 0 3 7 38 214 157 199 185 138 64 7 1
9 6 7 7 6 11 34 47 65 60 73 81 30 16 19 0 0 0 0 0 0 0 0 2 10 2 21 70 75 70 31 2 6
5 3 4 12 23 23 52 55 52 45 50 32 11 0 0 0 0 0 0 0 0 0 0 0 0 2 11 9 6 7 1 3 1
0 12 26 28 33 26 23 34 41 26 9 0 0 0 0 0 0 0 0 0 0 0 0 0 0 0 0 0 0 0 0 0 0
59 38 58 38 34 32 31 19 8 0 0 0 0 0 0 0 0 0 0 0 0 0 0 0 0 0 0 0 0 0 0 0 0
0 0 31 57 37 27 25 15 0 0 0 0 0 0 0 0 0 0 0 0 0 0 0 0 0 0 0 0 0 0 0 0 0
0 0 2 45 42 30 25 15 5 0 0 0 0 0 0 0 0 0 5 0 0 0 0 0 0 0 0 0 0 0 0 0 0
0 0 0 0 0 0 0 0 0 0 0 0 0 0 0 0 0 0 0 28 0 15 47 0 0 0 0 0 0 0 0 0 0
0 0 0 0 0 0 0 0 0 0 0 0 0 0 0 0 0 0 0 36 2 0 25 84 91 23 0 0 0 0 0 0 0
0 0 0 0 0 0 0 0 0 0 0 0 0 0 0 0 0 0 0 0 43 24 14 29 64 145 128 62 0 0 0 0 0
0 0 0 0 0 0 0 0 0 0 0 0 0 0 0 0 0 0 0 0 0 65 34 46 50 81 150 203 126 72 10 0 0
0 0 0 0 0 0 0 0 0 0 0 0 0 0 0 0 0 0 0 0 0 5 53 88 110 119 121 124 124 145 136 92 26
0 0 0 0 0 0 0 0 0 0 0 0 0 0 0 0 0 0 0 0 0 1 33 133 198 147 125 96 135 153 138 139 142
0 0 0 0 0 0 0 0 0 0 0 0 4 5 1 0 0 0 0 0 3 0 0 25 44 40 50 80 106 99 62 59 92
0 0 0 0 0 0 1 1 0 2 7 23 34 14 14 2 0 0 0 0 0 0 6 0 0 21 34 35 30 22 4 4 4
17 46 47 109 97 77 42 18 28 96 21 36 23 3 1 0 0 0 0 0 0 0 0 0 0 0 0 0 0 0 0 0 5
204 175 237 267 285 214 149 148 158 28 7 17 15 7 0 0 0 0 0 0 0 0 0 0 0 0 0 0 0 0 0 0 2
15 27 60 60 79 99 62 33 7 17 4 7 22 19 3 0 0 0 0 0 0 0 0 0 0 0 0 0 0 0 0 1 2
0 0 0 0 0 0 0 0 0 0 0 0 0 0 19 43 4 0 0 0 0 0 0 0 0 0 0 0 0 0 0 5 7
0 0 0 0 0 0 0 0 0 0 0 0 0 1 0 0 20 21 0 0 0 0 0 0 0 0 0 0 0 0 0 5 3